owner,sensor,date,latitude,longitude,vertical_datum,sea_water_practical_salinity,qcFlag 
DISL,ioos:station:DISL:BSCA:1,2011-09-01T00:00:00Z,30.3288,-87.8293,1.909,26.67,1111122 
DISL,ioos:station:DISL:BSCA:1,2011-09-01T00:30:00Z,30.3288,-87.8293,1.924,26.78,1111122 
DISL,ioos:station:DISL:BSCA:1,2011-09-01T01:00:00Z,30.3288,-87.8293,1.949,26.68,1111122 
DISL,ioos:station:DISL:BSCA:1,2011-09-01T01:30:00Z,30.3288,-87.8293,1.966,26.53,1111122 
DISL,ioos:station:DISL:BSCA:1,2011-09-01T02:00:00Z,30.3288,-87.8293,1.986,26.52,1111122 
DISL,ioos:station:DISL:BSCA:1,2011-09-01T02:30:00Z,30.3288,-87.8293,2.025,26.6,1111122 
DISL,ioos:station:DISL:BSCA:1,2011-09-01T03:00:00Z,30.3288,-87.8293,2.055,26.89,1111122 
DISL,ioos:station:DISL:BSCA:1,2011-09-01T03:30:00Z,30.3288,-87.8293,2.08,26.9,1111122 
DISL,ioos:station:DISL:BSCA:1,2011-09-01T04:00:00Z,30.3288,-87.8293,2.101,26.99,1111122 
DISL,ioos:station:DISL:BSCA:1,2011-09-01T04:30:00Z,30.3288,-87.8293,2.1,26.55,1111122 
DISL,ioos:station:DISL:BSCA:1,2011-09-01T05:00:00Z,30.3288,-87.8293,2.098,27.1,1111122 
DISL,ioos:station:DISL:BSCA:1,2011-09-01T05:30:00Z,30.3288,-87.8293,2.104,26.85,1111122 
DISL,ioos:station:DISL:BSCA:1,2011-09-01T06:00:00Z,30.3288,-87.8293,2.127,26.8,1111122 
DISL,ioos:station:DISL:BSCA:1,2011-09-01T06:30:00Z,30.3288,-87.8293,2.146,26.79,1111122 
DISL,ioos:station:DISL:BSCA:1,2011-09-01T07:00:00Z,30.3288,-87.8293,2.149,26.8,1111122 
DISL,ioos:station:DISL:BSCA:1,2011-09-01T07:30:00Z,30.3288,-87.8293,2.15,27.17,1111122 
DISL,ioos:station:DISL:BSCA:1,2011-09-01T08:00:00Z,30.3288,-87.8293,2.164,27.2,1111122 
DISL,ioos:station:DISL:BSCA:1,2011-09-01T08:30:00Z,30.3288,-87.8293,2.121,26.87,1111122 
DISL,ioos:station:DISL:BSCA:1,2011-09-01T09:00:00Z,30.3288,-87.8293,2.124,27.3,1111122 
DISL,ioos:station:DISL:BSCA:1,2011-09-01T09:30:00Z,30.3288,-87.8293,2.131,27.16,1111122 
DISL,ioos:station:DISL:BSCA:1,2011-09-01T10:00:00Z,30.3288,-87.8293,2.101,27.3,1111122 
DISL,ioos:station:DISL:BSCA:1,2011-09-01T10:30:00Z,30.3288,-87.8293,2.062,27.43,1111122 
DISL,ioos:station:DISL:BSCA:1,2011-09-01T11:00:00Z,30.3288,-87.8293,2.057,27.49,1111122 
DISL,ioos:station:DISL:BSCA:1,2011-09-01T11:30:00Z,30.3288,-87.8293,1.96,27.25,1111122 
DISL,ioos:station:DISL:BSCA:1,2011-09-01T12:00:00Z,30.3288,-87.8293,1.929,27.35,1111122 
DISL,ioos:station:DISL:BSCA:1,2011-09-01T12:30:00Z,30.3288,-87.8293,1.904,27.23,1111122 
DISL,ioos:station:DISL:BSCA:1,2011-09-01T13:00:00Z,30.3288,-87.8293,1.897,27.6,1111122 
DISL,ioos:station:DISL:BSCA:1,2011-09-01T13:30:00Z,30.3288,-87.8293,1.942,27.51,1111122 
DISL,ioos:station:DISL:BSCA:1,2011-09-01T14:00:00Z,30.3288,-87.8293,1.949,27.8,1111122 
DISL,ioos:station:DISL:BSCA:1,2011-09-01T14:30:00Z,30.3288,-87.8293,1.938,27.82,1111122 
DISL,ioos:station:DISL:BSCA:1,2011-09-01T15:00:00Z,30.3288,-87.8293,1.929,27.78,1111122 
DISL,ioos:station:DISL:BSCA:1,2011-09-01T15:30:00Z,30.3288,-87.8293,1.922,27.67,1111122 
DISL,ioos:station:DISL:BSCA:1,2011-09-01T16:00:00Z,30.3288,-87.8293,1.923,27.97,1111122 
DISL,ioos:station:DISL:BSCA:1,2011-09-01T16:30:00Z,30.3288,-87.8293,1.907,27.92,1111122 
DISL,ioos:station:DISL:BSCA:1,2011-09-01T17:00:00Z,30.3288,-87.8293,1.905,27.75,1111122 
DISL,ioos:station:DISL:BSCA:1,2011-09-01T17:30:00Z,30.3288,-87.8293,1.898,27.76,1111122 
DISL,ioos:station:DISL:BSCA:1,2011-09-01T18:00:00Z,30.3288,-87.8293,1.884,27.91,1111122 
DISL,ioos:station:DISL:BSCA:1,2011-09-01T18:30:00Z,30.3288,-87.8293,1.878,27.6,1111122 
DISL,ioos:station:DISL:BSCA:1,2011-09-01T19:00:00Z,30.3288,-87.8293,1.899,27.5,1111122 
DISL,ioos:station:DISL:BSCA:1,2011-09-01T19:30:00Z,30.3288,-87.8293,1.887,27.33,1111122 
DISL,ioos:station:DISL:BSCA:1,2011-09-01T20:00:00Z,30.3288,-87.8293,1.914,27.27,1111122 
DISL,ioos:station:DISL:BSCA:1,2011-09-01T20:30:00Z,30.3288,-87.8293,1.928,27.47,1111122 
DISL,ioos:station:DISL:BSCA:1,2011-09-01T21:00:00Z,30.3288,-87.8293,1.921,27.59,1111122 
DISL,ioos:station:DISL:BSCA:1,2011-09-01T21:30:00Z,30.3288,-87.8293,1.872,27.59,1111122 
DISL,ioos:station:DISL:BSCA:1,2011-09-01T22:00:00Z,30.3288,-87.8293,1.852,27.37,1111122 
DISL,ioos:station:DISL:BSCA:1,2011-09-01T22:30:00Z,30.3288,-87.8293,1.889,27.57,1111122 
DISL,ioos:station:DISL:BSCA:1,2011-09-01T23:00:00Z,30.3288,-87.8293,1.925,27.38,1111122 
DISL,ioos:station:DISL:BSCA:1,2011-09-01T23:30:00Z,30.3288,-87.8293,1.952,27.54,1111122 
DISL,ioos:station:DISL:BSCA:1,2011-09-02T00:00:00Z,30.3288,-87.8293,2.006,27.61,1111122 
DISL,ioos:station:DISL:BSCA:1,2011-09-02T00:30:00Z,30.3288,-87.8293,2.037,27.51,1111122 
DISL,ioos:station:DISL:BSCA:1,2011-09-02T01:00:00Z,30.3288,-87.8293,2.088,27.85,1111122 
DISL,ioos:station:DISL:BSCA:1,2011-09-02T01:30:00Z,30.3288,-87.8293,2.111,27.89,1111122 
DISL,ioos:station:DISL:BSCA:1,2011-09-02T02:00:00Z,30.3288,-87.8293,2.12,27.9,1111122 
DISL,ioos:station:DISL:BSCA:1,2011-09-02T02:30:00Z,30.3288,-87.8293,2.122,27.93,1111122 
DISL,ioos:station:DISL:BSCA:1,2011-09-02T03:00:00Z,30.3288,-87.8293,2.135,28.03,1111122 
DISL,ioos:station:DISL:BSCA:1,2011-09-02T03:30:00Z,30.3288,-87.8293,2.148,27.74,1111122 
DISL,ioos:station:DISL:BSCA:1,2011-09-02T04:00:00Z,30.3288,-87.8293,2.161,27.89,1111122 
DISL,ioos:station:DISL:BSCA:1,2011-09-02T04:30:00Z,30.3288,-87.8293,2.187,28.12,1111122 
DISL,ioos:station:DISL:BSCA:1,2011-09-02T05:00:00Z,30.3288,-87.8293,2.218,27.9,1111122 
DISL,ioos:station:DISL:BSCA:1,2011-09-02T05:30:00Z,30.3288,-87.8293,2.231,27.83,1111122 
DISL,ioos:station:DISL:BSCA:1,2011-09-02T06:00:00Z,30.3288,-87.8293,2.228,27.84,1111122 
DISL,ioos:station:DISL:BSCA:1,2011-09-02T06:30:00Z,30.3288,-87.8293,2.226,27.73,1111122 
DISL,ioos:station:DISL:BSCA:1,2011-09-02T07:00:00Z,30.3288,-87.8293,2.238,27.83,1111122 
DISL,ioos:station:DISL:BSCA:1,2011-09-02T07:30:00Z,30.3288,-87.8293,2.25,28.11,1111122 
DISL,ioos:station:DISL:BSCA:1,2011-09-02T08:00:00Z,30.3288,-87.8293,2.262,28.28,1111122 
DISL,ioos:station:DISL:BSCA:1,2011-09-02T08:30:00Z,30.3288,-87.8293,2.278,28.23,1111122 
DISL,ioos:station:DISL:BSCA:1,2011-09-02T09:00:00Z,30.3288,-87.8293,2.277,28.17,1111122 
DISL,ioos:station:DISL:BSCA:1,2011-09-02T09:30:00Z,30.3288,-87.8293,2.276,28.25,1111122 
DISL,ioos:station:DISL:BSCA:1,2011-09-02T10:00:00Z,30.3288,-87.8293,2.254,28.26,1111122 
DISL,ioos:station:DISL:BSCA:1,2011-09-02T10:30:00Z,30.3288,-87.8293,2.223,28.18,1111122 
DISL,ioos:station:DISL:BSCA:1,2011-09-02T11:00:00Z,30.3288,-87.8293,2.189,28.03,1111122 
DISL,ioos:station:DISL:BSCA:1,2011-09-02T11:30:00Z,30.3288,-87.8293,2.151,28.2,1111122 
DISL,ioos:station:DISL:BSCA:1,2011-09-02T12:00:00Z,30.3288,-87.8293,2.118,28.32,1111122 
DISL,ioos:station:DISL:BSCA:1,2011-09-02T12:30:00Z,30.3288,-87.8293,2.066,27.99,1111122 
DISL,ioos:station:DISL:BSCA:1,2011-09-02T13:00:00Z,30.3288,-87.8293,2.025,27.93,1111122 
DISL,ioos:station:DISL:BSCA:1,2011-09-02T13:30:00Z,30.3288,-87.8293,1.974,28.25,1111122 
DISL,ioos:station:DISL:BSCA:1,2011-09-02T14:00:00Z,30.3288,-87.8293,1.965,27.96,1111122 
DISL,ioos:station:DISL:BSCA:1,2011-09-02T14:30:00Z,30.3288,-87.8293,1.99,28.25,1111122 
DISL,ioos:station:DISL:BSCA:1,2011-09-02T15:00:00Z,30.3288,-87.8293,1.938,28.27,1111122 
DISL,ioos:station:DISL:BSCA:1,2011-09-02T15:30:00Z,30.3288,-87.8293,1.92,28.16,1111122 
DISL,ioos:station:DISL:BSCA:1,2011-09-02T16:00:00Z,30.3288,-87.8293,1.902,27.84,1111122 
DISL,ioos:station:DISL:BSCA:1,2011-09-02T16:30:00Z,30.3288,-87.8293,1.858,27.92,1111122 
DISL,ioos:station:DISL:BSCA:1,2011-09-02T17:00:00Z,30.3288,-87.8293,1.865,28.64,1111122 
DISL,ioos:station:DISL:BSCA:1,2011-09-02T17:30:00Z,30.3288,-87.8293,1.732,27.55,1111122 
DISL,ioos:station:DISL:BSCA:1,2011-09-02T18:00:00Z,30.3288,-87.8293,1.717,27.71,1111122 
DISL,ioos:station:DISL:BSCA:1,2011-09-02T18:30:00Z,30.3288,-87.8293,1.686,27.71,1111122 
DISL,ioos:station:DISL:BSCA:1,2011-09-02T19:00:00Z,30.3288,-87.8293,1.751,27.79,1111122 
DISL,ioos:station:DISL:BSCA:1,2011-09-02T19:30:00Z,30.3288,-87.8293,1.794,27.9,1111122 
DISL,ioos:station:DISL:BSCA:1,2011-09-02T20:00:00Z,30.3288,-87.8293,1.831,27.69,1111122 
DISL,ioos:station:DISL:BSCA:1,2011-09-02T20:30:00Z,30.3288,-87.8293,1.835,27.85,1111122 
DISL,ioos:station:DISL:BSCA:1,2011-09-02T21:00:00Z,30.3288,-87.8293,1.883,27.66,1111122 
DISL,ioos:station:DISL:BSCA:1,2011-09-02T21:30:00Z,30.3288,-87.8293,1.89,27.87,1111122 
DISL,ioos:station:DISL:BSCA:1,2011-09-02T22:00:00Z,30.3288,-87.8293,1.934,27.79,1111122 
DISL,ioos:station:DISL:BSCA:1,2011-09-02T22:30:00Z,30.3288,-87.8293,1.89,27.45,1111122 
DISL,ioos:station:DISL:BSCA:1,2011-09-02T23:00:00Z,30.3288,-87.8293,1.895,27.5,1111122 
DISL,ioos:station:DISL:BSCA:1,2011-09-02T23:30:00Z,30.3288,-87.8293,1.938,27.87,1111122 
DISL,ioos:station:DISL:BSCA:1,2011-09-03T00:00:00Z,30.3288,-87.8293,1.975,27.79,1111122 
DISL,ioos:station:DISL:BSCA:1,2011-09-03T00:30:00Z,30.3288,-87.8293,2.025,27.71,1111122 
DISL,ioos:station:DISL:BSCA:1,2011-09-03T01:00:00Z,30.3288,-87.8293,2.044,28.01,1111122 
DISL,ioos:station:DISL:BSCA:1,2011-09-03T01:30:00Z,30.3288,-87.8293,2.089,27.97,1111122 
DISL,ioos:station:DISL:BSCA:1,2011-09-03T02:00:00Z,30.3288,-87.8293,2.067,27.88,1111122 
DISL,ioos:station:DISL:BSCA:1,2011-09-03T02:30:00Z,30.3288,-87.8293,2.155,27.78,1111122 
DISL,ioos:station:DISL:BSCA:1,2011-09-03T03:00:00Z,30.3288,-87.8293,2.066,27.7,1111122 
DISL,ioos:station:DISL:BSCA:1,2011-09-03T03:30:00Z,30.3288,-87.8293,2.021,27.58,1111122 
DISL,ioos:station:DISL:BSCA:1,2011-09-03T04:00:00Z,30.3288,-87.8293,2.132,27.93,1111122 
DISL,ioos:station:DISL:BSCA:1,2011-09-03T04:30:00Z,30.3288,-87.8293,2.198,26.95,1111122 
DISL,ioos:station:DISL:BSCA:1,2011-09-03T05:00:00Z,30.3288,-87.8293,2.305,28.07,1111122 
DISL,ioos:station:DISL:BSCA:1,2011-09-03T05:30:00Z,30.3288,-87.8293,2.339,28.09,1111122 
DISL,ioos:station:DISL:BSCA:1,2011-09-03T06:00:00Z,30.3288,-87.8293,2.413,28.13,1111122 
DISL,ioos:station:DISL:BSCA:1,2011-09-03T06:30:00Z,30.3288,-87.8293,2.464,27.49,1111122 
DISL,ioos:station:DISL:BSCA:1,2011-09-03T07:00:00Z,30.3288,-87.8293,2.494,27.13,1111122 
DISL,ioos:station:DISL:BSCA:1,2011-09-03T07:30:00Z,30.3288,-87.8293,2.422,27.52,1111122 
DISL,ioos:station:DISL:BSCA:1,2011-09-03T08:00:00Z,30.3288,-87.8293,2.457,27.47,1111122 
DISL,ioos:station:DISL:BSCA:1,2011-09-03T08:30:00Z,30.3288,-87.8293,2.384,28.28,1111122 
DISL,ioos:station:DISL:BSCA:1,2011-09-03T09:00:00Z,30.3288,-87.8293,2.405,28.24,1111122 
DISL,ioos:station:DISL:BSCA:1,2011-09-03T09:30:00Z,30.3288,-87.8293,2.465,28.18,1111122 
DISL,ioos:station:DISL:BSCA:1,2011-09-03T10:00:00Z,30.3288,-87.8293,2.417,27.38,1111122 
DISL,ioos:station:DISL:BSCA:1,2011-09-03T10:30:00Z,30.3288,-87.8293,2.451,27.12,1111122 
DISL,ioos:station:DISL:BSCA:1,2011-09-03T11:00:00Z,30.3288,-87.8293,2.424,27.81,1111122 
DISL,ioos:station:DISL:BSCA:1,2011-09-03T11:30:00Z,30.3288,-87.8293,2.378,26.94,1111122 
DISL,ioos:station:DISL:BSCA:1,2011-09-03T12:00:00Z,30.3288,-87.8293,2.311,26.86,1111122 
DISL,ioos:station:DISL:BSCA:1,2011-09-03T12:30:00Z,30.3288,-87.8293,2.276,26.82,1111122 
DISL,ioos:station:DISL:BSCA:1,2011-09-03T13:00:00Z,30.3288,-87.8293,2.247,27.27,1111122 
DISL,ioos:station:DISL:BSCA:1,2011-09-03T13:30:00Z,30.3288,-87.8293,2.072,27.29,1111122 
DISL,ioos:station:DISL:BSCA:1,2011-09-03T14:00:00Z,30.3288,-87.8293,1.871,27.18,1111122 
DISL,ioos:station:DISL:BSCA:1,2011-09-03T14:30:00Z,30.3288,-87.8293,2.038,27.21,1111122 
DISL,ioos:station:DISL:BSCA:1,2011-09-03T15:00:00Z,30.3288,-87.8293,2.035,27.21,1111122 
DISL,ioos:station:DISL:BSCA:1,2011-09-03T15:30:00Z,30.3288,-87.8293,2.058,26.42,1111122 
DISL,ioos:station:DISL:BSCA:1,2011-09-03T16:00:00Z,30.3288,-87.8293,2.149,26.63,1111122 
DISL,ioos:station:DISL:BSCA:1,2011-09-03T16:30:00Z,30.3288,-87.8293,1.999,26.11,1111122 
DISL,ioos:station:DISL:BSCA:1,2011-09-03T17:00:00Z,30.3288,-87.8293,2.082,26.31,1111122 
DISL,ioos:station:DISL:BSCA:1,2011-09-03T17:30:00Z,30.3288,-87.8293,1.931,26.38,1111122 
DISL,ioos:station:DISL:BSCA:1,2011-09-03T18:00:00Z,30.3288,-87.8293,2.072,26.01,1111122 
DISL,ioos:station:DISL:BSCA:1,2011-09-03T18:30:00Z,30.3288,-87.8293,2.016,26.08,1111122 
DISL,ioos:station:DISL:BSCA:1,2011-09-03T19:00:00Z,30.3288,-87.8293,1.915,26.55,1111122 
DISL,ioos:station:DISL:BSCA:1,2011-09-03T19:30:00Z,30.3288,-87.8293,1.951,26.1,1111122 
DISL,ioos:station:DISL:BSCA:1,2011-09-03T20:00:00Z,30.3288,-87.8293,1.98,26.47,1111122 
DISL,ioos:station:DISL:BSCA:1,2011-09-03T20:30:00Z,30.3288,-87.8293,1.912,26.64,1111122 
DISL,ioos:station:DISL:BSCA:1,2011-09-03T21:00:00Z,30.3288,-87.8293,1.845,26.44,1111122 
DISL,ioos:station:DISL:BSCA:1,2011-09-03T21:30:00Z,30.3288,-87.8293,1.904,26.71,1111122 
DISL,ioos:station:DISL:BSCA:1,2011-09-03T22:00:00Z,30.3288,-87.8293,1.968,26.33,1111122 
DISL,ioos:station:DISL:BSCA:1,2011-09-03T22:30:00Z,30.3288,-87.8293,2.022,27.42,1111122 
DISL,ioos:station:DISL:BSCA:1,2011-09-03T23:00:00Z,30.3288,-87.8293,1.936,26.6,1111122 
DISL,ioos:station:DISL:BSCA:1,2011-09-03T23:30:00Z,30.3288,-87.8293,2.09,26.16,1111122 
DISL,ioos:station:DISL:BSCA:1,2011-09-04T00:00:00Z,30.3288,-87.8293,2.163,25.35,1111122 
DISL,ioos:station:DISL:BSCA:1,2011-09-04T00:30:00Z,30.3288,-87.8293,2.135,26.06,1111122 
DISL,ioos:station:DISL:BSCA:1,2011-09-04T01:00:00Z,30.3288,-87.8293,2.246,25.68,1111122 
DISL,ioos:station:DISL:BSCA:1,2011-09-04T01:30:00Z,30.3288,-87.8293,2.076,24.93,1111122 
DISL,ioos:station:DISL:BSCA:1,2011-09-04T02:00:00Z,30.3288,-87.8293,2.116,25.94,1111122 
DISL,ioos:station:DISL:BSCA:1,2011-09-04T02:30:00Z,30.3288,-87.8293,2.061,25.93,1111122 
DISL,ioos:station:DISL:BSCA:1,2011-09-04T03:00:00Z,30.3288,-87.8293,2.214,26.5,1111122 
DISL,ioos:station:DISL:BSCA:1,2011-09-04T03:30:00Z,30.3288,-87.8293,2.282,27.13,1111122 
DISL,ioos:station:DISL:BSCA:1,2011-09-04T04:00:00Z,30.3288,-87.8293,2.338,26.53,1111122 
DISL,ioos:station:DISL:BSCA:1,2011-09-04T04:30:00Z,30.3288,-87.8293,2.387,27.04,1111122 
DISL,ioos:station:DISL:BSCA:1,2011-09-04T05:00:00Z,30.3288,-87.8293,2.454,26.59,1111122 
DISL,ioos:station:DISL:BSCA:1,2011-09-04T05:30:00Z,30.3288,-87.8293,2.465,27.13,1111122 
DISL,ioos:station:DISL:BSCA:1,2011-09-04T06:00:00Z,30.3288,-87.8293,2.468,27.29,1111122 
DISL,ioos:station:DISL:BSCA:1,2011-09-04T06:30:00Z,30.3288,-87.8293,2.443,26.77,1111122 
DISL,ioos:station:DISL:BSCA:1,2011-09-04T07:00:00Z,30.3288,-87.8293,2.422,27.68,1111122 
DISL,ioos:station:DISL:BSCA:1,2011-09-04T07:30:00Z,30.3288,-87.8293,2.465,26.93,1111122 
DISL,ioos:station:DISL:BSCA:1,2011-09-04T08:00:00Z,30.3288,-87.8293,2.581,27.0,1111122 
DISL,ioos:station:DISL:BSCA:1,2011-09-04T08:30:00Z,30.3288,-87.8293,2.641,27.65,1111122 
DISL,ioos:station:DISL:BSCA:1,2011-09-04T09:00:00Z,30.3288,-87.8293,2.576,27.77,1111122 
DISL,ioos:station:DISL:BSCA:1,2011-09-04T09:30:00Z,30.3288,-87.8293,2.596,27.71,1111122 
DISL,ioos:station:DISL:BSCA:1,2011-09-04T10:00:00Z,30.3288,-87.8293,2.806,27.97,1111122 
DISL,ioos:station:DISL:BSCA:1,2011-09-04T10:30:00Z,30.3288,-87.8293,2.715,27.87,1111122 
DISL,ioos:station:DISL:BSCA:1,2011-09-04T11:00:00Z,30.3288,-87.8293,2.614,27.74,1111122 
DISL,ioos:station:DISL:BSCA:1,2011-09-04T11:30:00Z,30.3288,-87.8293,2.629,27.88,1111122 
DISL,ioos:station:DISL:BSCA:1,2011-09-04T12:00:00Z,30.3288,-87.8293,2.599,27.63,1111122 
DISL,ioos:station:DISL:BSCA:1,2011-09-04T12:30:00Z,30.3288,-87.8293,2.515,27.43,1111122 
DISL,ioos:station:DISL:BSCA:1,2011-09-04T13:00:00Z,30.3288,-87.8293,2.49,27.41,1111122 
DISL,ioos:station:DISL:BSCA:1,2011-09-04T13:30:00Z,30.3288,-87.8293,2.484,27.31,1111122 
DISL,ioos:station:DISL:BSCA:1,2011-09-04T14:00:00Z,30.3288,-87.8293,2.45,27.23,1111122 
DISL,ioos:station:DISL:BSCA:1,2011-09-04T14:30:00Z,30.3288,-87.8293,2.421,26.67,1111122 
DISL,ioos:station:DISL:BSCA:1,2011-09-04T15:00:00Z,30.3288,-87.8293,2.423,26.36,1111122 
DISL,ioos:station:DISL:BSCA:1,2011-09-04T15:30:00Z,30.3288,-87.8293,2.371,26.02,1111122 
DISL,ioos:station:DISL:BSCA:1,2011-09-04T16:00:00Z,30.3288,-87.8293,2.201,26.07,1111122 
DISL,ioos:station:DISL:BSCA:1,2011-09-04T16:30:00Z,30.3288,-87.8293,2.26,26.22,1111122 
DISL,ioos:station:DISL:BSCA:1,2011-09-04T17:00:00Z,30.3288,-87.8293,2.14,26.42,1111122 
DISL,ioos:station:DISL:BSCA:1,2011-09-04T17:30:00Z,30.3288,-87.8293,2.218,26.34,1111122 
DISL,ioos:station:DISL:BSCA:1,2011-09-04T18:00:00Z,30.3288,-87.8293,2.277,26.37,1111122 
DISL,ioos:station:DISL:BSCA:1,2011-09-04T18:30:00Z,30.3288,-87.8293,2.084,26.39,1111122 
DISL,ioos:station:DISL:BSCA:1,2011-09-04T19:00:00Z,30.3288,-87.8293,2.124,27.71,1111122 
DISL,ioos:station:DISL:BSCA:1,2011-09-04T19:30:00Z,30.3288,-87.8293,2.067,28.86,1111122 
DISL,ioos:station:DISL:BSCA:1,2011-09-04T20:00:00Z,30.3288,-87.8293,2.108,29.2,1111122 
DISL,ioos:station:DISL:BSCA:1,2011-09-04T20:30:00Z,30.3288,-87.8293,2.101,29.18,1111122 
DISL,ioos:station:DISL:BSCA:1,2011-09-04T21:00:00Z,30.3288,-87.8293,2.117,29.65,1111122 
DISL,ioos:station:DISL:BSCA:1,2011-09-04T21:30:00Z,30.3288,-87.8293,2.216,29.45,1111122 
DISL,ioos:station:DISL:BSCA:1,2011-09-04T22:00:00Z,30.3288,-87.8293,2.166,30.17,1111122 
DISL,ioos:station:DISL:BSCA:1,2011-09-04T22:30:00Z,30.3288,-87.8293,2.096,29.45,1111122 
DISL,ioos:station:DISL:BSCA:1,2011-09-04T23:00:00Z,30.3288,-87.8293,2.178,29.52,1111122 
DISL,ioos:station:DISL:BSCA:1,2011-09-04T23:30:00Z,30.3288,-87.8293,2.159,29.86,1111122 
DISL,ioos:station:DISL:BSCA:1,2011-09-05T00:00:00Z,30.3288,-87.8293,2.131,30.15,1111122 
DISL,ioos:station:DISL:BSCA:1,2011-09-05T00:30:00Z,30.3288,-87.8293,2.063,30.14,1111122 
DISL,ioos:station:DISL:BSCA:1,2011-09-05T01:00:00Z,30.3288,-87.8293,2.122,29.67,1111122 
DISL,ioos:station:DISL:BSCA:1,2011-09-05T01:30:00Z,30.3288,-87.8293,2.101,29.85,1111122 
DISL,ioos:station:DISL:BSCA:1,2011-09-05T02:00:00Z,30.3288,-87.8293,2.188,30.36,1111122 
DISL,ioos:station:DISL:BSCA:1,2011-09-05T02:30:00Z,30.3288,-87.8293,2.26,30.47,1111122 
DISL,ioos:station:DISL:BSCA:1,2011-09-05T03:00:00Z,30.3288,-87.8293,2.295,30.16,1111122 
DISL,ioos:station:DISL:BSCA:1,2011-09-05T03:30:00Z,30.3288,-87.8293,2.32,30.35,1111122 
DISL,ioos:station:DISL:BSCA:1,2011-09-05T04:00:00Z,30.3288,-87.8293,2.348,30.29,1111122 
DISL,ioos:station:DISL:BSCA:1,2011-09-05T04:30:00Z,30.3288,-87.8293,2.353,30.21,1111122 
DISL,ioos:station:DISL:BSCA:1,2011-09-05T05:00:00Z,30.3288,-87.8293,2.436,30.16,1111122 
DISL,ioos:station:DISL:BSCA:1,2011-09-05T05:30:00Z,30.3288,-87.8293,2.389,30.01,1111122 
DISL,ioos:station:DISL:BSCA:1,2011-09-05T06:00:00Z,30.3288,-87.8293,2.412,30.29,1111122 
DISL,ioos:station:DISL:BSCA:1,2011-09-05T06:30:00Z,30.3288,-87.8293,2.42,29.67,1111122 
DISL,ioos:station:DISL:BSCA:1,2011-09-05T07:00:00Z,30.3288,-87.8293,2.47,30.05,1111122 
DISL,ioos:station:DISL:BSCA:1,2011-09-05T07:30:00Z,30.3288,-87.8293,2.517,30.0,1111122 
DISL,ioos:station:DISL:BSCA:1,2011-09-05T08:00:00Z,30.3288,-87.8293,2.513,29.28,1111122 
DISL,ioos:station:DISL:BSCA:1,2011-09-05T08:30:00Z,30.3288,-87.8293,2.579,30.31,1111122 
DISL,ioos:station:DISL:BSCA:1,2011-09-05T09:00:00Z,30.3288,-87.8293,2.574,29.96,1111122 
DISL,ioos:station:DISL:BSCA:1,2011-09-05T09:30:00Z,30.3288,-87.8293,2.702,30.38,1111122 
DISL,ioos:station:DISL:BSCA:1,2011-09-05T10:00:00Z,30.3288,-87.8293,2.603,30.03,1111122 
DISL,ioos:station:DISL:BSCA:1,2011-09-05T10:30:00Z,30.3288,-87.8293,2.58,29.88,1111122 
DISL,ioos:station:DISL:BSCA:1,2011-09-05T11:00:00Z,30.3288,-87.8293,2.617,29.66,1111122 
DISL,ioos:station:DISL:BSCA:1,2011-09-05T11:30:00Z,30.3288,-87.8293,2.582,30.67,1111122 
DISL,ioos:station:DISL:BSCA:1,2011-09-05T12:00:00Z,30.3288,-87.8293,2.591,29.98,1111122 
DISL,ioos:station:DISL:BSCA:1,2011-09-05T12:30:00Z,30.3288,-87.8293,2.689,30.15,1111122 
DISL,ioos:station:DISL:BSCA:1,2011-09-05T13:00:00Z,30.3288,-87.8293,2.613,30.38,1111122 
DISL,ioos:station:DISL:BSCA:1,2011-09-05T13:30:00Z,30.3288,-87.8293,2.6,30.36,1111122 
DISL,ioos:station:DISL:BSCA:1,2011-09-05T14:00:00Z,30.3288,-87.8293,2.551,29.96,1111122 
DISL,ioos:station:DISL:BSCA:1,2011-09-05T14:30:00Z,30.3288,-87.8293,2.397,30.35,1111122 
DISL,ioos:station:DISL:BSCA:1,2011-09-05T15:00:00Z,30.3288,-87.8293,2.442,30.54,1111122 
DISL,ioos:station:DISL:BSCA:1,2011-09-05T15:30:00Z,30.3288,-87.8293,2.488,30.75,1111122 
DISL,ioos:station:DISL:BSCA:1,2011-09-05T16:00:00Z,30.3288,-87.8293,2.554,30.3,1111122 
DISL,ioos:station:DISL:BSCA:1,2011-09-05T16:30:00Z,30.3288,-87.8293,2.571,29.49,1111122 
DISL,ioos:station:DISL:BSCA:1,2011-09-05T17:00:00Z,30.3288,-87.8293,2.265,30.87,1111122 
DISL,ioos:station:DISL:BSCA:1,2011-09-05T17:30:00Z,30.3288,-87.8293,2.534,30.47,1111122 
DISL,ioos:station:DISL:BSCA:1,2011-09-05T18:00:00Z,30.3288,-87.8293,2.417,30.63,1111122 
DISL,ioos:station:DISL:BSCA:1,2011-09-05T18:30:00Z,30.3288,-87.8293,2.407,30.84,1111122 
DISL,ioos:station:DISL:BSCA:1,2011-09-05T19:00:00Z,30.3288,-87.8293,2.624,30.99,1111122 
DISL,ioos:station:DISL:BSCA:1,2011-09-05T19:30:00Z,30.3288,-87.8293,2.645,31.91,1111122 
DISL,ioos:station:DISL:BSCA:1,2011-09-05T20:00:00Z,30.3288,-87.8293,2.504,30.71,1111122 
DISL,ioos:station:DISL:BSCA:1,2011-09-05T20:30:00Z,30.3288,-87.8293,2.603,31.8,1111122 
DISL,ioos:station:DISL:BSCA:1,2011-09-05T21:00:00Z,30.3288,-87.8293,2.486,30.66,1111122 
DISL,ioos:station:DISL:BSCA:1,2011-09-05T21:30:00Z,30.3288,-87.8293,2.463,30.85,1111122 
DISL,ioos:station:DISL:BSCA:1,2011-09-05T22:00:00Z,30.3288,-87.8293,2.64,30.75,1111122 
DISL,ioos:station:DISL:BSCA:1,2011-09-05T22:30:00Z,30.3288,-87.8293,2.222,30.89,1111122 
DISL,ioos:station:DISL:BSCA:1,2011-09-05T23:00:00Z,30.3288,-87.8293,2.399,30.46,1111122 
DISL,ioos:station:DISL:BSCA:1,2011-09-05T23:30:00Z,30.3288,-87.8293,2.153,30.54,1111122 
DISL,ioos:station:DISL:BSCA:1,2011-09-06T00:00:00Z,30.3288,-87.8293,2.15,30.17,1111122 
DISL,ioos:station:DISL:BSCA:1,2011-09-06T00:30:00Z,30.3288,-87.8293,2.165,29.53,1111122 
DISL,ioos:station:DISL:BSCA:1,2011-09-06T01:00:00Z,30.3288,-87.8293,1.993,30.15,1111122 
DISL,ioos:station:DISL:BSCA:1,2011-09-06T01:30:00Z,30.3288,-87.8293,2.078,29.67,1111122 
DISL,ioos:station:DISL:BSCA:1,2011-09-06T02:00:00Z,30.3288,-87.8293,1.965,28.94,1111122 
DISL,ioos:station:DISL:BSCA:1,2011-09-06T02:30:00Z,30.3288,-87.8293,2.019,29.13,1111122 
DISL,ioos:station:DISL:BSCA:1,2011-09-06T03:00:00Z,30.3288,-87.8293,2.001,27.45,1111122 
DISL,ioos:station:DISL:BSCA:1,2011-09-06T03:30:00Z,30.3288,-87.8293,1.951,25.89,1111122 
DISL,ioos:station:DISL:BSCA:1,2011-09-06T04:00:00Z,30.3288,-87.8293,2.021,23.73,1111122 
DISL,ioos:station:DISL:BSCA:1,2011-09-06T04:30:00Z,30.3288,-87.8293,2.024,26.38,1111122 
DISL,ioos:station:DISL:BSCA:1,2011-09-06T05:00:00Z,30.3288,-87.8293,1.99,24.88,1111122 
DISL,ioos:station:DISL:BSCA:1,2011-09-06T05:30:00Z,30.3288,-87.8293,1.997,25.66,1111122 
DISL,ioos:station:DISL:BSCA:1,2011-09-06T06:00:00Z,30.3288,-87.8293,2.003,25.0,1111122 
DISL,ioos:station:DISL:BSCA:1,2011-09-06T06:30:00Z,30.3288,-87.8293,2.081,26.39,1111122 
DISL,ioos:station:DISL:BSCA:1,2011-09-06T07:00:00Z,30.3288,-87.8293,2.081,27.71,1111122 
DISL,ioos:station:DISL:BSCA:1,2011-09-06T07:30:00Z,30.3288,-87.8293,2.125,27.7,1111122 
DISL,ioos:station:DISL:BSCA:1,2011-09-06T08:00:00Z,30.3288,-87.8293,2.146,27.84,1111122 
DISL,ioos:station:DISL:BSCA:1,2011-09-06T08:30:00Z,30.3288,-87.8293,2.195,27.57,1111122 
DISL,ioos:station:DISL:BSCA:1,2011-09-06T09:00:00Z,30.3288,-87.8293,2.22,27.84,1111122 
DISL,ioos:station:DISL:BSCA:1,2011-09-06T09:30:00Z,30.3288,-87.8293,2.264,28.77,1111122 
DISL,ioos:station:DISL:BSCA:1,2011-09-06T10:00:00Z,30.3288,-87.8293,2.283,28.79,1111122 
DISL,ioos:station:DISL:BSCA:1,2011-09-06T10:30:00Z,30.3288,-87.8293,2.306,29.42,1111122 
DISL,ioos:station:DISL:BSCA:1,2011-09-06T11:00:00Z,30.3288,-87.8293,2.329,29.24,1111122 
DISL,ioos:station:DISL:BSCA:1,2011-09-06T11:30:00Z,30.3288,-87.8293,2.348,28.75,1111122 
DISL,ioos:station:DISL:BSCA:1,2011-09-06T12:00:00Z,30.3288,-87.8293,2.353,28.39,1111122 
DISL,ioos:station:DISL:BSCA:1,2011-09-06T12:30:00Z,30.3288,-87.8293,2.346,27.85,1111122 
DISL,ioos:station:DISL:BSCA:1,2011-09-06T13:00:00Z,30.3288,-87.8293,2.358,28.0,1111122 
DISL,ioos:station:DISL:BSCA:1,2011-09-06T13:30:00Z,30.3288,-87.8293,2.345,28.42,1111122 
DISL,ioos:station:DISL:BSCA:1,2011-09-06T14:00:00Z,30.3288,-87.8293,2.332,26.56,1111122 